Flag for Germany Weather past 2 weeks in Neunkirchen (Saar), Saarland, Germany

Now
36 °F

Passing clouds.


Feels Like: 30 °F
Forecast: 32 / 35 °F
Wind: 7 mph from West

Location: Saarbruecken / Ensheim

Current Time: Dec 26, 2014 at 3:27:05 AM

Latest Report: Dec 26, 2014 at 2:50 AM


Visibility: N/A

Pressure: 30.39 "Hg

Humidity: 100%

Dew point: 36 °F

Location of Neunkirchen (Saar)Location

Historic Weather in Neunkirchen (Saar) — Graph

°F

Neunkirchen (Saar) temperature yesterday

Maximum temperature yesterday: 45 °F (at 12:20 AM)
Minimum temperature yesterday: 37 °F (at 5:50 AM)
Average temperature yesterday: 39 °F

Past Weeks' High & Low Weather Summary

 TemperatureHumidityPressure
High52 °F (Dec 18, 1:20 PM)100% (Dec 11, 2:20 AM)30.51 "Hg (Dec 11, 2:20 AM)
Low34 °F (Dec 24, 3:50 AM)71% (Dec 12, 11:50 AM)29.65 "Hg (Dec 12, 4:50 PM)
Average42 °F91%30.08 "Hg
* Reported Dec 11 2:20 AM — Dec 26 2:20 AM, Neunkirchen (Saar), Weather by CustomWeather, © 2014

Note: Actual official high and low records may vary slightly from our data, if they occured in-between our weather recording intervals... More about our weather records

Advertising

Neunkirchen (Saar) weather history for previous 24 hours

 ConditionsComfort  
Time TempWeatherWind HumidityBarometerVisibility
2:20 AM
Dec 26
36 °FLight rain. Passing clouds.8 mph100%30.39 "HgN/A
1:50 AM36 °FPassing clouds.7 mph100%30.36 "HgN/A
1:20 AM36 °FPassing clouds.8 mph93%30.36 "HgN/A
12:50 AM36 °FPartly cloudy.7 mph93%30.36 "HgN/A
12:20 AM36 °FPassing clouds.9 mph93%30.36 "HgN/A
11:50 PM
Dec 25
37 °FPassing clouds.10 mph87%30.36 "HgN/A
11:20 PM37 °FPassing clouds.10 mph87%30.36 "HgN/A
10:50 PM37 °FPassing clouds.10 mph87%30.36 "HgN/A
10:20 PM37 °FPartly cloudy.8 mph87%30.36 "HgN/A
9:50 PM37 °FPartly cloudy.8 mph93%30.36 "HgN/A
9:20 PM37 °FPassing clouds.7 mph87%30.36 "HgN/A
8:50 PM37 °FPassing clouds.12 mph87%30.36 "HgN/A
8:20 PM39 °FPassing clouds.13 mph81%30.36 "HgN/A
7:50 PM39 °FPassing clouds.12 mph81%30.33 "HgN/A
7:20 PM39 °FPassing clouds.14 mph81%30.33 "HgN/A
6:50 PM39 °FPassing clouds.13 mph81%30.33 "HgN/A
6:20 PM39 °FPassing clouds.9 mph81%30.33 "HgN/A
5:50 PM39 °FPassing clouds.9 mph81%30.33 "HgN/A
5:20 PM39 °FPassing clouds.12 mph81%30.33 "HgN/A
4:20 PM39 °FPartly sunny.12 mph81%30.30 "HgN/A
3:50 PM39 °FBroken clouds.12 mph81%30.30 "HgN/A
3:20 PM39 °FPartly sunny.13 mph81%30.30 "HgN/A
2:50 PM39 °FScattered clouds.10 mph81%30.30 "HgN/A
2:20 PM39 °FScattered clouds.15 mph81%30.30 "HgN/A
1:50 PM39 °FPartly sunny.12 mph81%30.30 "HgN/A
1:20 PM39 °FPartly sunny.13 mph87%30.30 "HgN/A
12:50 PM39 °FPartly sunny.12 mph81%30.30 "HgN/A
12:20 PM39 °FPartly sunny.9 mph87%30.30 "HgN/A
11:50 AM39 °FPartly sunny.12 mph81%30.30 "HgN/A
11:20 AM39 °FBroken clouds.9 mph81%30.30 "HgN/A
10:50 AM37 °FBroken clouds.8 mph87%30.30 "HgN/A
10:20 AM37 °FPartly sunny.10 mph87%30.30 "HgN/A
9:50 AM37 °FBroken clouds.10 mph87%30.30 "HgN/A
9:20 AM37 °FBroken clouds.10 mph87%30.27 "HgN/A
8:50 AM37 °FPartly sunny.10 mph87%30.27 "HgN/A
8:20 AM39 °FPassing clouds.10 mph81%30.27 "HgN/A
7:50 AM39 °FPartly cloudy.9 mph81%30.27 "HgN/A
7:20 AM39 °FPartly cloudy.8 mph87%30.24 "HgN/A
6:50 AM39 °FPassing clouds.6 mph87%30.24 "HgN/A
6:20 AM37 °FPassing clouds.6 mph87%30.24 "HgN/A
5:50 AM37 °FPassing clouds.7 mph87%30.24 "HgN/A
5:20 AM39 °FPassing clouds.13 mph81%30.24 "HgN/A
4:50 AM39 °FPassing clouds.8 mph81%30.24 "HgN/A
4:20 AM39 °FPassing clouds.8 mph81%30.24 "HgN/A
3:50 AM39 °FPassing clouds.12 mph81%30.21 "HgN/A
3:20 AM39 °FPassing clouds.10 mph87%30.21 "HgN/A
Weather by CustomWeather, © 2014

See weather overviewHow to use our weather pages